Regional Weather Roundup
Issued by NWS

Home | Current Version | Previous Version | Text Only | Print | Product List | Glossary Off
Versions: 1 2 3 4 5 6 7 8 9 10 11 12 13 14 15 16 17 18 19 20 21 22 23 24 25 26 27 28 29 30 31 32 33 34 35 36 37 38 39 40 41 42 43 44 45 46 47 48 49 50

000
ASUS45 KABQ 181901
RWRNM
NEW MEXICO REGIONAL WEATHER ROUNDUP
NATIONAL WEATHER SERVICE ALBUQUERQUE NM
100 PM MDT WED OCT 18 2017

NOTE: "FAIR" MEANS FEW OR NO CLOUDS BELOW 12,000 FEET AGL WITH NO
       SIGNIFICANT WEATHER OR OBSTRUCTIONS TO VISION.

      THIS PRODUCT IS RELEASED AS TWO VERSIONS.  ONE VERSION NEAR
      THE TOP OF THE HOUR CONTAINING PRELIMINARY DATA FROM ALBUQUERQUE
      AND OTHER STATIONS.  A FINAL VERSION WITH ADDITIONAL DATA IS
      ISSUED ABOUT 10 MINUTES AFTER THE HOUR.

NMZ501-503-504-510>518-182000-
NORTHWEST PLATEAU/NORTHCENTRAL MOUNTAINS

CITY           SKY/WX    TMP DP  RH WIND       PRES   REMARKS
FARMINGTON     FAIR      66  15  14 E3        30.23F
LOS ALAMOS     FAIR      62  21  21 NE5       30.31F
SANTA FE       FAIR      71  19  14 N12       30.25F
TAOS           FAIR      67  14  13 N5        30.32F
ANGEL FIRE     FAIR      62  14  15 CALM      30.35F

$$
NMZ402-403-502-505>509-182000-
WESTCENTRAL MOUNTAINS/SOUTHWEST MOUNTAINS

CITY           SKY/WX    TMP DP  RH WIND       PRES   REMARKS
GALLUP         FAIR      72  27  18 VRB6      30.27F
GRANTS         FAIR      69  19  14 NW3       30.30F
SILVER CITY    CLOUDY    77  41  27 SE3       30.22F

$$
NMZ407-409-411-412-182000-
SOUTHERN DESERTS

CITY           SKY/WX    TMP DP  RH WIND       PRES   REMARKS
DEMING         CLOUDY    76  48  37 CALM      30.16F
LAS CRUCES     CLOUDY    75  44  32 E3        30.17F
HOLLOMAN AFB   FAIR      81  42  24 S5          N/A
ALAMOGORDO     FAIR      77  41  27 S5        30.16F
T OR C         FAIR      75  38  26 E5        30.18F

$$
NMZ519>523-182000-
CENTRAL VALLEYS/CENTRAL HIGHLANDS

CITY           SKY/WX    TMP DP  RH WIND       PRES   REMARKS
ALBUQUERQUE    CLOUDY    70  11  10 CALM      30.23F
DOUBLE EAGLE   PTSUNNY   68  21  17 VRB7      30.25F
MORIARTY ARPT  FAIR      77  20  11 NW14      30.25S
CLINES CORNERS NOT AVBL
BELEN          FAIR      70  26  19 CALM      30.22F
SOCORRO        FAIR      73  29  19 N5        30.19F

$$
NMZ524>526-539-540-182000-
SOUTHCENTRAL MOUNTAINS

CITY           SKY/WX    TMP DP  RH WIND       PRES   REMARKS
RUIDOSO        FAIR      68  32  26 N9        30.30F

$$
NMZ527>531-182000-
NORTHEAST HIGHLANDS/NORTHEAST PLAINS

CITY           SKY/WX    TMP DP  RH WIND       PRES   REMARKS
LAS VEGAS      FAIR      74  12   9 NE6       30.23F
RATON          FAIR      76  14   9 CALM      30.19F
CLAYTON        FAIR      80  23  12 E9        30.11F

$$
NMZ532>537-182000-
EASTCENTRAL PLAINS

CITY           SKY/WX    TMP DP  RH WIND       PRES   REMARKS
SANTA ROSA     FAIR      80  23  12 NW5       30.10F
TUCUMCARI      FAIR      78  28  16 VRB3      30.05F
CANNON AFB     FAIR      77  35  22 W13       30.09F
CLOVIS AIRPORT FAIR      77  37  23 W10       30.09F

$$
NMZ028-029-538-182000-
SOUTHEAST PLAINS

CITY           SKY/WX    TMP DP  RH WIND       PRES   REMARKS
ROSWELL        FAIR      75  50  41 SE7       30.09F
ARTESIA        FAIR      81  48  32 VRB7G13   30.08F
CARLSBAD       FAIR      75  52  44 VRB5      30.07F
HOBBS          SUNNY     82  46  28 SW8       30.10F


$$




USA.gov is the U.S. government's official web portal to all federal, state and local government web resources and services.